TimeEST,TemperatureF,Dew PointF,Humidity,Sea Level PressureIn,VisibilityMPH,Wind Direction,Wind SpeedMPH,Gust SpeedMPH,PrecipitationIn,Events,Conditions,WindDirDegrees,DateUTC
12:53 AM,66.9,62.1,84,30.09,10.0,South,3.5,-,N/A,,Clear,180,2013-01-16 05:53:00
1:53 AM,66.0,62.1,87,30.09,10.0,South,3.5,-,N/A,,Clear,180,2013-01-16 06:53:00
3:53 AM,63.0,61.0,93,30.08,10.0,SSE,3.5,-,N/A,,Partly Cloudy,160,2013-01-16 08:53:00
4:53 AM,64.0,62.1,93,30.07,10.0,Calm,Calm,-,N/A,,Partly Cloudy,0,2013-01-16 09:53:00
5:53 AM,63.0,61.0,93,30.08,10.0,Calm,Calm,-,N/A,,Clear,0,2013-01-16 10:53:00
6:53 AM,62.1,60.1,93,30.09,9.0,Calm,Calm,-,N/A,,Clear,0,2013-01-16 11:53:00
7:53 AM,63.0,61.0,93,30.12,10.0,SE,3.5,-,N/A,,Clear,130,2013-01-16 12:53:00
8:53 AM,68.0,64.0,87,30.13,10.0,South,5.8,-,N/A,,Clear,190,2013-01-16 13:53:00
9:53 AM,73.0,64.0,73,30.14,10.0,SSW,8.1,-,N/A,,Clear,200,2013-01-16 14:53:00
10:53 AM,75.0,61.0,62,30.12,10.0,WSW,6.9,-,N/A,,Mostly Cloudy,240,2013-01-16 15:53:00
11:53 AM,79.0,59.0,50,30.09,10.0,SSW,8.1,-,N/A,,Clear,210,2013-01-16 16:53:00
12:53 PM,80.1,57.0,45,30.07,10.0,SSE,5.8,-,N/A,,Scattered Clouds,160,2013-01-16 17:53:00
1:53 PM,80.1,55.9,43,30.05,10.0,Variable,3.5,-,N/A,,Partly Cloudy,0,2013-01-16 18:53:00
2:53 PM,79.0,55.0,44,30.04,10.0,Calm,Calm,-,N/A,,Partly Cloudy,0,2013-01-16 19:53:00
3:53 PM,80.1,55.9,43,30.04,10.0,SSE,3.5,-,N/A,,Partly Cloudy,160,2013-01-16 20:53:00
4:53 PM,80.1,55.0,42,30.04,10.0,SSE,6.9,-,N/A,,Clear,160,2013-01-16 21:53:00
5:53 PM,77.0,57.0,50,30.05,10.0,South,3.5,-,N/A,,Clear,170,2013-01-16 22:53:00
6:53 PM,72.0,55.9,57,30.06,10.0,SE,4.6,-,N/A,,Clear,130,2013-01-16 23:53:00
7:53 PM,70.0,57.9,65,30.06,10.0,ESE,9.2,-,N/A,,Clear,120,2013-01-17 00:53:00
8:53 PM,69.1,63.0,81,30.07,10.0,SE,5.8,-,N/A,,Clear,130,2013-01-17 01:53:00
9:53 PM,69.1,64.0,84,30.06,10.0,SE,5.8,-,N/A,,Clear,140,2013-01-17 02:53:00
10:53 PM,66.9,64.0,90,30.06,10.0,SSE,4.6,-,N/A,,Clear,150,2013-01-17 03:53:00
11:53 PM,66.9,64.0,90,30.05,10.0,SSE,4.6,-,N/A,,Clear,160,2013-01-17 04:53:00